| time (UTC) | temp F | wind direction | speed MPH | gust MPH | rain 1hr in | rain 24hr in | rain mn in | humidity % | barometer mb |
| 20260510060004 | 51 | 276 | 0.0 | 1.0 | 0.00 | 0.11 | 0.00 | 96 | 988.3 |
| 20260510055005 | 51 | 276 | 0.0 | 2.0 | 0.00 | 0.11 | 0.00 | 97 | 988.5 |
| 20260510052003 | 51 | 272 | 1.0 | 2.0 | 0.00 | 0.11 | 0.00 | 96 | 988.1 |
| 20260510051004 | 51 | 263 | 2.0 | 5.0 | 0.00 | 0.11 | 0.00 | 95 | 987.9 |
| 20260510050005 | 51 | 282 | 1.0 | 2.0 | 0.00 | 0.11 | 0.00 | 94 | 987.7 |
| 20260510045004 | 52 | 263 | 1.0 | 6.0 | 0.00 | 0.11 | 0.00 | 94 | 987.4 |
| 20260510044004 | 51 | 215 | 3.0 | 6.0 | 0.00 | 0.11 | 0.00 | 94 | 987.7 |
| 20260510042005 | 51 | 268 | 1.0 | 2.0 | 0.00 | 0.11 | 0.00 | 94 | 987.1 |
| 20260510041004 | 51 | 289 | 0.0 | 0.0 | 0.00 | 0.11 | 0.00 | 93 | 986.8 |
| 20260510040004 | 52 | 287 | 0.0 | 2.0 | 0.00 | 0.11 | 0.00 | 93 | 986.4 |
| 20260510035005 | 52 | 260 | 1.0 | 7.0 | 0.00 | 0.11 | 0.11 | 92 | 986.5 |
| 20260510033004 | 52 | 204 | 2.0 | 5.0 | 0.00 | 0.11 | 0.11 | 92 | 986.5 |
| 20260510032004 | 52 | 238 | 2.0 | 6.0 | 0.00 | 0.11 | 0.11 | 92 | 986.9 |
| 20260510030004 | 52 | 247 | 2.0 | 5.0 | 0.00 | 0.11 | 0.11 | 92 | 986.6 |
| 20260510025004 | 52 | 261 | 2.0 | 6.0 | 0.00 | 0.11 | 0.11 | 92 | 986.5 |
| 20260510024005 | 52 | 250 | 3.0 | 7.0 | 0.00 | 0.11 | 0.11 | 92 | 986.5 |
| 20260510023004 | 52 | 239 | 2.0 | 8.0 | 0.00 | 0.11 | 0.11 | 92 | 986.4 |
| 20260510022004 | 52 | 250 | 1.0 | 3.0 | 0.00 | 0.11 | 0.11 | 92 | 986.1 |
| 20260510021005 | 52 | 259 | 2.0 | 5.0 | 0.00 | 0.11 | 0.11 | 92 | 986.1 |
| 20260510020005 | 52 | 251 | 1.0 | 5.0 | 0.00 | 0.11 | 0.11 | 92 | 986.1 |
| 20260510015004 | 52 | 147 | 2.0 | 6.0 | 0.00 | 0.11 | 0.11 | 92 | 986.1 |
| 20260510014005 | 52 | 182 | 2.0 | 6.0 | 0.00 | 0.11 | 0.11 | 91 | 986.0 |
| 20260510012004 | 52 | 182 | 3.0 | 9.0 | 0.00 | 0.11 | 0.11 | 91 | 985.8 |
| 20260510011004 | 52 | 228 | 3.0 | 9.0 | 0.00 | 0.11 | 0.11 | 92 | 985.6 |
| 20260510010005 | 52 | 237 | 2.0 | 10.0 | 0.00 | 0.11 | 0.11 | 93 | 985.7 |
| 20260510005004 | 52 | 265 | 1.0 | 6.0 | 0.00 | 0.11 | 0.11 | 93 | 985.4 |
| 20260510004004 | 52 | 246 | 1.0 | 3.0 | 0.00 | 0.11 | 0.11 | 93 | 985.2 |
| 20260510003004 | 52 | 190 | 2.0 | 5.0 | 0.01 | 0.11 | 0.11 | 93 | 985.0 |
| 20260510002004 | 52 | 237 | 2.0 | 6.0 | 0.03 | 0.11 | 0.11 | 93 | 985.0 |
| 20260510001004 | 52 | 145 | 2.0 | 5.0 | 0.06 | 0.11 | 0.11 | 94 | 985.0 |
| 20260510000004 | 51 | 280 | 2.0 | 6.0 | 0.08 | 0.11 | 0.11 | 94 | 985.2 |
| 20260509235004 | 51 | 85 | 2.0 | 6.0 | 0.11 | 0.11 | 0.11 | 95 | 984.9 |
| 20260509234004 | 51 | 304 | 1.0 | 7.0 | 0.11 | 0.11 | 0.11 | 94 | 985.0 |
| 20260509233004 | 51 | 240 | 4.0 | 12.0 | 0.10 | 0.10 | 0.10 | 93 | 985.2 |
| 20260509232004 | 51 | 238 | 6.0 | 12.0 | 0.08 | 0.08 | 0.08 | 93 | 985.5 |
| 20260509231004 | 52 | 227 | 7.0 | 16.0 | 0.05 | 0.05 | 0.05 | 92 | 985.9 |
| 20260509230004 | 53 | 197 | 7.0 | 22.0 | 0.03 | 0.03 | 0.03 | 90 | 986.1 |
| 20260509225005 | 59 | 204 | 6.0 | 15.0 | 0.00 | 0.00 | 0.00 | 79 | 985.1 |
| 20260509224004 | 61 | 235 | 2.0 | 9.0 | 0.00 | 0.00 | 0.00 | 72 | 983.5 |
| 20260509223005 | 62 | 260 | 1.0 | 3.0 | 0.00 | 0.00 | 0.00 | 70 | 983.3 |
| 20260509222006 | 62 | 149 | 2.0 | 5.0 | 0.00 | 0.00 | 0.00 | 68 | 982.9 |
| 20260509221004 | 62 | 292 | 1.0 | 3.0 | 0.00 | 0.00 | 0.00 | 67 | 983.0 |
| 20260509220004 | 62 | 273 | 1.0 | 3.0 | 0.00 | 0.00 | 0.00 | 67 | 983.1 |
| 20260509215004 | 63 | 227 | 2.0 | 6.0 | 0.00 | 0.00 | 0.00 | 66 | 983.3 |
| 20260509214004 | 63 | 261 | 1.0 | 7.0 | 0.00 | 0.00 | 0.00 | 66 | 983.3 |
| 20260509213005 | 63 | 272 | 2.0 | 6.0 | 0.00 | 0.00 | 0.00 | 66 | 983.2 |
| 20260509212003 | 62 | 195 | 2.0 | 5.0 | 0.00 | 0.00 | 0.00 | 67 | 983.3 |
| 20260509211006 | 62 | 270 | 1.0 | 9.0 | 0.00 | 0.00 | 0.00 | 68 | 983.5 |
| 20260509210004 | 62 | 245 | 2.0 | 9.0 | 0.00 | 0.00 | 0.00 | 67 | 983.7 |
| 20260509205004 | 63 | 279 | 1.0 | 7.0 | 0.00 | 0.00 | 0.00 | 68 | 983.6 |
| 20260509204004 | 63 | 133 | 3.0 | 8.0 | 0.00 | 0.00 | 0.00 | 67 | 983.8 |
| 20260509202003 | 63 | 237 | 3.0 | 9.0 | 0.00 | 0.00 | 0.00 | 66 | 983.9 |
| 20260509201003 | 64 | 166 | 3.0 | 12.0 | 0.00 | 0.00 | 0.00 | 65 | 983.8 |
| 20260509200005 | 64 | 208 | 5.0 | 12.0 | 0.00 | 0.00 | 0.00 | 64 | 984.1 |
| 20260509195009 | 64 | 216 | 3.0 | 9.0 | 0.00 | 0.00 | 0.00 | 63 | 984.2 |
| 20260509194009 | 64 | 224 | 5.0 | 12.0 | 0.00 | 0.00 | 0.00 | 62 | 984.1 |
| 20260509193009 | 64 | 143 | 4.0 | 13.0 | 0.00 | 0.00 | 0.00 | 63 | 984.1 |
| 20260509190005 | 63 | 117 | 5.0 | 12.0 | 0.00 | 0.00 | 0.00 | 66 | 984.9 |
| 20260509185004 | 64 | 198 | 6.0 | 13.0 | 0.00 | 0.00 | 0.00 | 64 | 985.0 |
| 20260509184005 | 63 | 191 | 6.0 | 14.0 | 0.00 | 0.00 | 0.00 | 65 | 985.0 |
| 20260509183006 | 63 | 222 | 4.0 | 14.0 | 0.00 | 0.00 | 0.00 | 66 | 985.0 |
| 20260509182004 | 64 | 196 | 3.0 | 13.0 | 0.00 | 0.00 | 0.00 | 66 | 984.9 |
| 20260509181004 | 63 | 214 | 4.0 | 13.0 | 0.00 | 0.00 | 0.00 | 67 | 985.0 |
| 20260509180005 | 63 | 210 | 3.0 | 10.0 | 0.00 | 0.00 | 0.00 | 68 | 985.0 |
| 20260509175004 | 63 | 199 | 3.0 | 10.0 | 0.00 | 0.00 | 0.00 | 67 | 985.4 |
| 20260509174004 | 62 | 218 | 5.0 | 12.0 | 0.00 | 0.00 | 0.00 | 68 | 985.6 |
| 20260509173004 | 63 | 195 | 3.0 | 12.0 | 0.00 | 0.00 | 0.00 | 68 | 985.6 |
| 20260509172004 | 63 | 207 | 3.0 | 9.0 | 0.00 | 0.00 | 0.00 | 69 | 985.8 |
| 20260509170005 | 61 | 226 | 5.0 | 10.0 | 0.00 | 0.00 | 0.00 | 69 | 985.7 |
| 20260509165004 | 61 | 232 | 3.0 | 9.0 | 0.00 | 0.00 | 0.00 | 69 | 985.8 |
| 20260509164005 | 60 | 169 | 5.0 | 13.0 | 0.00 | 0.00 | 0.00 | 70 | 986.0 |
| 20260509163004 | 60 | 225 | 4.0 | 13.0 | 0.00 | 0.00 | 0.00 | 70 | 986.0 |
| 20260509162006 | 60 | 232 | 4.0 | 12.0 | 0.00 | 0.00 | 0.00 | 73 | 986.3 |
| 20260509161004 | 59 | 197 | 4.0 | 12.0 | 0.00 | 0.00 | 0.00 | 71 | 986.2 |
| 20260509160006 | 59 | 166 | 4.0 | 7.0 | 0.00 | 0.00 | 0.00 | 73 | 986.2 |
| 20260509155004 | 58 | 124 | 3.0 | 8.0 | 0.00 | 0.00 | 0.00 | 76 | 986.1 |
| 20260509154004 | 59 | 148 | 4.0 | 8.0 | 0.00 | 0.00 | 0.00 | 74 | 986.4 |
| 20260509152004 | 58 | 208 | 3.0 | 9.0 | 0.00 | 0.00 | 0.00 | 76 | 986.3 |
| 20260509151005 | 58 | 183 | 3.0 | 9.0 | 0.00 | 0.00 | 0.00 | 78 | 986.4 |
| 20260509150004 | 58 | 230 | 3.0 | 8.0 | 0.00 | 0.00 | 0.00 | 78 | 986.5 |
| 20260509145005 | 57 | 215 | 3.0 | 7.0 | 0.00 | 0.00 | 0.00 | 79 | 986.5 |
| 20260509142004 | 57 | 204 | 3.0 | 9.0 | 0.00 | 0.00 | 0.00 | 78 | 986.5 |
| 20260509141004 | 57 | 195 | 2.0 | 8.0 | 0.00 | 0.00 | 0.00 | 80 | 986.8 |
| 20260509135004 | 56 | 1 | 2.0 | 7.0 | 0.00 | 0.00 | 0.00 | 82 | 987.0 |
| 20260509134004 | 56 | 189 | 3.0 | 6.0 | 0.00 | 0.00 | 0.00 | 82 | 986.9 |
| 20260509130005 | 55 | 103 | 2.0 | 6.0 | 0.00 | 0.00 | 0.00 | 82 | 986.8 |
| 20260509123005 | 53 | 304 | 0.0 | 3.0 | 0.00 | 0.00 | 0.00 | 85 | 987.1 |
| 20260509122006 | 52 | 281 | 1.0 | 2.0 | 0.00 | 0.00 | 0.00 | 86 | 987.3 |
| 20260509121004 | 51 | 297 | 1.0 | 2.0 | 0.00 | 0.00 | 0.00 | 86 | 987.2 |
| 20260509115004 | 50 | 0 | 1.0 | 2.0 | 0.00 | 0.00 | 0.00 | 88 | 987.3 |
| 20260509113004 | 48 | 337 | 1.0 | 1.0 | 0.00 | 0.01 | 0.00 | 88 | 987.3 |
| 20260509111007 | 47 | 337 | 0.0 | 1.0 | 0.00 | 0.03 | 0.00 | 89 | 987.5 |
| 20260509105004 | 45 | 335 | 0.0 | 1.0 | 0.00 | 0.05 | 0.00 | 89 | 987.6 |
| 20260509104004 | 44 | 335 | 0.0 | 0.0 | 0.00 | 0.05 | 0.00 | 90 | 987.6 |
| 20260509103004 | 43 | 335 | 0.0 | 0.0 | 0.00 | 0.05 | 0.00 | 89 | 987.5 |
| 20260509102004 | 43 | 335 | 0.0 | 0.0 | 0.00 | 0.05 | 0.00 | 89 | 987.5 |
| 20260509101004 | 43 | 335 | 0.0 | 0.0 | 0.00 | 0.05 | 0.00 | 88 | 987.3 |
| 20260509100005 | 44 | 335 | 0.0 | 0.0 | 0.00 | 0.06 | 0.00 | 87 | 987.4 |
| 20260509093005 | 44 | 335 | 0.0 | 0.0 | 0.00 | 0.07 | 0.00 | 84 | 987.4 |
| 20260509091004 | 45 | 335 | 0.0 | 1.0 | 0.00 | 0.07 | 0.00 | 83 | 987.5 |
| 20260509090004 | 45 | 335 | 0.0 | 1.0 | 0.00 | 0.07 | 0.00 | 83 | 987.5 |
| 20260509085004 | 45 | 335 | 0.0 | 1.0 | 0.00 | 0.07 | 0.00 | 82 | 987.5 |
| 20260509084005 | 45 | 335 | 0.0 | 0.0 | 0.00 | 0.07 | 0.00 | 81 | 987.7 |
| 20260509083004 | 45 | 335 | 0.0 | 0.0 | 0.00 | 0.07 | 0.00 | 80 | 987.7 |
| 20260509082004 | 46 | 335 | 0.0 | 1.0 | 0.00 | 0.07 | 0.00 | 78 | 987.5 |
| 20260509081005 | 45 | 335 | 0.0 | 1.0 | 0.00 | 0.07 | 0.00 | 77 | 987.6 |
| 20260509080005 | 45 | 333 | 0.0 | 2.0 | 0.00 | 0.07 | 0.00 | 77 | 987.8 |
| 20260509075005 | 45 | 331 | 0.0 | 0.0 | 0.00 | 0.07 | 0.00 | 76 | 987.9 |
| 20260509074004 | 44 | 331 | 0.0 | 1.0 | 0.00 | 0.07 | 0.00 | 75 | 987.8 |
| 20260509071004 | 44 | 328 | 0.0 | 1.0 | 0.00 | 0.07 | 0.00 | 73 | 988.3 |
| 20260509070004 | 44 | 328 | 0.0 | 0.0 | 0.00 | 0.07 | 0.00 | 72 | 988.1 |
| 20260509065005 | 44 | 328 | 0.0 | 1.0 | 0.00 | 0.07 | 0.00 | 71 | 988.1 |
| 20260509064005 | 44 | 328 | 0.0 | 1.0 | 0.00 | 0.07 | 0.00 | 71 | 988.4 |
| 20260509063005 | 44 | 328 | 0.0 | 1.0 | 0.00 | 0.07 | 0.00 | 70 | 988.5 |
| 20260509062005 | 45 | 328 | 0.0 | 1.0 | 0.00 | 0.07 | 0.00 | 68 | 988.8 |